Location: Unspecified
(0.0000°N, 0.0000°E)
Time: 05:52:24
(UTC+00:00)

CUTE 1.7 + AOD 2 - Pass Details

Date: 18 May 2026
Orbit: 531 x 545 km, 97.8° (Epoch: 11 June)

Event Time Altitude Azimuth Distance (km) Brightness Sun altitude
Rises 04:17:33 0° 5° (N) 2,656 ? -23.2°
Reaches altitude 10° 04:19:40 10° 1° (N) 1,771 ? -22.7°
Enters shadow 04:22:40 47° 328° (NNW) 706 ? -22.0°
